Time,TemperatureF,DewpointF,PressureIn,WindDirection,WindDirectionDegrees,WindSpeedMPH,WindSpeedGustMPH,Humidity,HourlyPrecipIn,Conditions,Clouds,dailyrainin,SoftwareType,DateUTC
2013-02-03 00:17:00,33.3,31.2,29.84,ESE,112,1.6,-999.0,92,-99.99,,,0.00,Acu-Link.com,2013-02-03 05:17:00,
2013-02-03 00:33:00,33.1,31.3,29.84,WNW,292,2.2,-999.0,93,-99.99,,,0.00,Acu-Link.com,2013-02-03 05:33:00,
2013-02-03 00:48:00,33.1,30.5,29.85,NNW,337,2.2,-999.0,90,-99.99,,,0.00,Acu-Link.com,2013-02-03 05:48:00,
2013-02-03 01:03:00,33.1,29.6,29.85,SE,135,2.7,-999.0,87,-99.99,,,0.00,Acu-Link.com,2013-02-03 06:03:00,
2013-02-03 01:18:00,33.1,29.6,29.84,North,0,3.1,-999.0,87,-99.99,,,0.00,Acu-Link.com,2013-02-03 06:18:00,
2013-02-03 01:33:00,32.5,29.9,29.84,NNW,337,3.1,-999.0,90,-99.99,,,0.00,Acu-Link.com,2013-02-03 06:33:00,
2013-02-03 01:49:00,32.4,29.2,29.82,NNW,337,3.1,-999.0,88,-99.99,,,0.00,Acu-Link.com,2013-02-03 06:49:00,
2013-02-03 02:04:00,32.0,29.9,29.83,NNW,337,1.6,-999.0,92,-99.99,,,0.00,Acu-Link.com,2013-02-03 07:04:00,
2013-02-03 02:19:00,32.2,29.0,29.82,NNW,337,1.1,-999.0,88,-99.99,,,0.00,Acu-Link.com,2013-02-03 07:19:00,
2013-02-03 02:34:00,31.8,28.7,29.82,NNW,337,2.2,-999.0,88,-99.99,,,0.00,Acu-Link.com,2013-02-03 07:34:00,
2013-02-03 02:49:00,31.6,29.1,29.82,NNW,337,2.2,-999.0,90,-99.99,,,0.00,Acu-Link.com,2013-02-03 07:49:00,
2013-02-03 03:05:00,31.3,28.7,29.81,NNW,337,2.7,-999.0,90,-99.99,,,0.00,Acu-Link.com,2013-02-03 08:05:00,
2013-02-03 03:20:00,31.3,27.9,29.82,NNW,337,2.2,-999.0,87,-99.99,,,0.00,Acu-Link.com,2013-02-03 08:20:00,
2013-02-03 03:35:00,31.5,27.8,29.81,NNW,337,3.1,-999.0,86,-99.99,,,0.00,Acu-Link.com,2013-02-03 08:35:00,
2013-02-03 03:50:00,31.5,27.8,29.80,NNW,337,4.3,-999.0,86,-99.99,,,0.00,Acu-Link.com,2013-02-03 08:50:00,
2013-02-03 04:05:00,31.8,28.1,29.81,NNW,337,0.0,-999.0,86,-99.99,,,0.00,Acu-Link.com,2013-02-03 09:05:00,
2013-02-03 04:21:00,31.6,28.5,29.80,NNW,337,2.7,-999.0,88,-99.99,,,0.00,Acu-Link.com,2013-02-03 09:21:00,
2013-02-03 04:36:00,31.3,27.9,29.81,NNW,337,2.7,-999.0,87,-99.99,,,0.00,Acu-Link.com,2013-02-03 09:36:00,
2013-02-03 04:51:00,31.3,27.9,29.80,NNW,337,0.0,-999.0,87,-99.99,,,0.00,Acu-Link.com,2013-02-03 09:51:00,
2013-02-03 05:06:00,30.9,27.8,29.80,NNW,337,1.6,-999.0,88,-99.99,,,0.00,Acu-Link.com,2013-02-03 10:06:00,
2013-02-03 05:22:00,30.9,27.8,29.80,NNW,337,1.1,-999.0,88,-99.99,,,0.00,Acu-Link.com,2013-02-03 10:22:00,
2013-02-03 05:37:00,30.9,28.3,29.80,NNW,337,2.2,-999.0,90,-99.99,,,0.00,Acu-Link.com,2013-02-03 10:37:00,
2013-02-03 05:52:00,30.6,28.0,29.79,NNW,337,2.2,-999.0,90,-99.99,,,0.00,Acu-Link.com,2013-02-03 10:52:00,
2013-02-03 06:07:00,30.2,28.2,29.80,NNW,337,1.6,-999.0,92,-99.99,,,0.00,Acu-Link.com,2013-02-03 11:07:00,
2013-02-03 06:22:00,30.2,27.9,29.79,North,0,2.7,-999.0,91,-99.99,,,0.00,Acu-Link.com,2013-02-03 11:22:00,
2013-02-03 06:38:00,30.2,28.2,29.79,South,180,2.7,-999.0,92,-99.99,,,0.00,Acu-Link.com,2013-02-03 11:38:00,
2013-02-03 06:53:00,30.4,28.6,29.78,NNW,337,2.2,-999.0,93,-99.99,,,0.00,Acu-Link.com,2013-02-03 11:53:00,
2013-02-03 07:08:00,30.0,28.5,29.78,NNW,337,1.6,-999.0,94,-99.99,,,0.00,Acu-Link.com,2013-02-03 12:08:00,
2013-02-03 07:23:00,30.2,28.7,29.78,NNW,337,1.1,-999.0,94,-99.99,,,0.00,Acu-Link.com,2013-02-03 12:23:00,
2013-02-03 07:38:00,30.6,28.8,29.76,NNW,337,1.6,-999.0,93,-99.99,,,0.00,Acu-Link.com,2013-02-03 12:38:00,
2013-02-03 07:54:00,30.7,29.0,29.76,NNW,337,0.0,-999.0,93,-99.99,,,0.00,Acu-Link.com,2013-02-03 12:54:00,
2013-02-03 08:09:00,31.3,29.8,29.76,NNW,337,4.3,-999.0,94,-99.99,,,0.00,Acu-Link.com,2013-02-03 13:09:00,
2013-02-03 08:24:00,32.0,30.7,29.77,ENE,67,3.8,-999.0,95,-99.99,,,0.00,Acu-Link.com,2013-02-03 13:24:00,
2013-02-03 08:39:00,32.4,30.6,29.76,NNW,337,3.8,-999.0,93,-99.99,,,0.00,Acu-Link.com,2013-02-03 13:39:00,
2013-02-03 08:54:00,32.7,30.9,29.76,NNW,337,9.4,-999.0,93,-99.99,,,0.00,Acu-Link.com,2013-02-03 13:54:00,
2013-02-03 09:10:00,33.3,31.5,29.77,WNW,292,8.3,-999.0,93,-99.99,,,0.00,Acu-Link.com,2013-02-03 14:10:00,
2013-02-03 09:25:00,33.8,31.5,29.76,North,0,9.8,-999.0,91,-99.99,,,0.00,Acu-Link.com,2013-02-03 14:25:00,
2013-02-03 09:40:00,33.4,31.4,29.76,East,90,9.4,-999.0,92,-99.99,,,0.00,Acu-Link.com,2013-02-03 14:40:00,
2013-02-03 09:55:00,33.3,31.5,29.77,ENE,67,4.7,-999.0,93,-99.99,,,0.00,Acu-Link.com,2013-02-03 14:55:00,
2013-02-03 10:11:00,34.2,32.4,29.76,ENE,67,3.1,-999.0,93,-99.99,,,0.00,Acu-Link.com,2013-02-03 15:11:00,
2013-02-03 10:26:00,37.2,33.1,29.76,ENE,67,4.3,-999.0,85,-99.99,,,0.00,Acu-Link.com,2013-02-03 15:26:00,
2013-02-03 10:41:00,37.2,32.5,29.76,East,90,4.7,-999.0,83,-99.99,,,0.00,Acu-Link.com,2013-02-03 15:41:00,
2013-02-03 10:56:00,37.9,32.6,29.76,NE,45,3.1,-999.0,81,-99.99,,,0.00,Acu-Link.com,2013-02-03 15:56:00,
2013-02-03 11:11:00,37.8,32.5,29.76,NNE,22,3.8,-999.0,81,-99.99,,,0.00,Acu-Link.com,2013-02-03 16:11:00,
2013-02-03 11:27:00,39.0,32.8,29.77,WNW,292,6.3,-999.0,78,-99.99,,,0.00,Acu-Link.com,2013-02-03 16:27:00,
2013-02-03 11:42:00,41.7,33.4,29.77,SSE,157,6.7,-999.0,72,-99.99,,,0.00,Acu-Link.com,2013-02-03 16:42:00,
2013-02-03 11:57:00,42.1,33.0,29.77,West,270,4.3,-999.0,70,-99.99,,,0.05,Acu-Link.com,2013-02-03 16:57:00,
2013-02-03 12:12:00,41.5,33.9,29.76,ESE,112,5.1,-999.0,74,-99.99,,,0.17,Acu-Link.com,2013-02-03 17:12:00,
2013-02-03 12:27:00,43.0,33.2,29.75,East,90,2.2,-999.0,68,-99.99,,,0.26,Acu-Link.com,2013-02-03 17:27:00,
2013-02-03 12:43:00,43.0,32.0,29.76,SE,135,0.0,-999.0,65,-99.99,,,0.51,Acu-Link.com,2013-02-03 17:43:00,
2013-02-03 12:58:00,42.4,32.3,29.75,South,180,3.1,-999.0,67,-99.99,,,0.63,Acu-Link.com,2013-02-03 17:58:00,
2013-02-03 13:13:00,41.9,31.8,29.74,ENE,67,6.7,-999.0,67,-99.99,,,0.74,Acu-Link.com,2013-02-03 18:13:00,
2013-02-03 13:28:00,41.4,31.2,29.75,ESE,112,8.3,-999.0,67,-99.99,,,0.83,Acu-Link.com,2013-02-03 18:28:00,
2013-02-03 13:43:00,41.5,30.7,29.74,SE,135,2.7,-999.0,65,-99.99,,,0.93,Acu-Link.com,2013-02-03 18:43:00,
2013-02-03 13:59:00,41.7,29.7,29.74,South,180,1.1,-999.0,62,-99.99,,,0.96,Acu-Link.com,2013-02-03 18:59:00,
2013-02-03 14:14:00,41.7,29.3,29.74,SE,135,2.7,-999.0,61,-99.99,,,0.99,Acu-Link.com,2013-02-03 19:14:00,
2013-02-03 14:29:00,42.1,28.8,29.73,West,270,2.2,-999.0,59,-99.99,,,1.01,Acu-Link.com,2013-02-03 19:29:00,
2013-02-03 14:44:00,42.6,29.3,29.73,NNW,337,4.3,-999.0,59,-99.99,,,1.05,Acu-Link.com,2013-02-03 19:44:00,
2013-02-03 15:00:00,41.2,29.2,29.73,ENE,67,4.7,-999.0,62,-99.99,,,1.06,Acu-Link.com,2013-02-03 20:00:00,
2013-02-03 15:15:00,40.6,29.4,29.74,NW,315,6.7,-999.0,64,-99.99,,,1.06,Acu-Link.com,2013-02-03 20:15:00,
2013-02-03 15:30:00,40.3,29.1,29.74,North,0,1.6,-999.0,64,-99.99,,,1.07,Acu-Link.com,2013-02-03 20:30:00,
2013-02-03 15:45:00,40.3,28.7,29.75,East,90,4.7,-999.0,63,-99.99,,,1.07,Acu-Link.com,2013-02-03 20:45:00,
2013-02-03 16:00:00,40.8,28.8,29.76,ESE,112,2.7,-999.0,62,-99.99,,,1.07,Acu-Link.com,2013-02-03 21:00:00,
2013-02-03 16:16:00,40.8,28.0,29.76,NE,45,5.1,-999.0,60,-99.99,,,1.07,Acu-Link.com,2013-02-03 21:16:00,
2013-02-03 16:31:00,40.3,27.9,29.76,NW,315,2.7,-999.0,61,-99.99,,,1.07,Acu-Link.com,2013-02-03 21:31:00,
2013-02-03 16:46:00,39.6,28.4,29.77,NW,315,1.6,-999.0,64,-99.99,,,1.08,Acu-Link.com,2013-02-03 21:46:00,
2013-02-03 17:01:00,38.8,28.1,29.77,West,270,2.2,-999.0,65,-99.99,,,1.08,Acu-Link.com,2013-02-03 22:01:00,
2013-02-03 17:16:00,39.4,26.7,29.77,SW,225,2.7,-999.0,60,-99.99,,,1.08,Acu-Link.com,2013-02-03 22:16:00,
2013-02-03 17:32:00,38.3,27.2,29.77,WNW,292,2.2,-999.0,64,-99.99,,,1.08,Acu-Link.com,2013-02-03 22:32:00,
2013-02-03 17:47:00,37.4,27.1,29.78,SSW,202,1.6,-999.0,66,-99.99,,,1.08,Acu-Link.com,2013-02-03 22:47:00,
2013-02-03 18:02:00,37.8,26.7,29.77,East,90,2.7,-999.0,64,-99.99,,,1.08,Acu-Link.com,2013-02-03 23:02:00,
2013-02-03 18:17:00,37.8,26.3,29.78,ESE,112,3.1,-999.0,63,-99.99,,,1.08,Acu-Link.com,2013-02-03 23:17:00,
2013-02-03 18:32:00,37.6,26.1,29.77,SW,225,1.1,-999.0,63,-99.99,,,1.08,Acu-Link.com,2013-02-03 23:32:00,
2013-02-03 18:48:00,37.2,26.6,29.79,WNW,292,0.0,-999.0,65,-99.99,,,1.08,Acu-Link.com,2013-02-03 23:48:00,
2013-02-03 19:03:00,36.1,26.6,29.80,NNE,22,2.7,-999.0,68,-99.99,,,1.08,Acu-Link.com,2013-02-04 00:03:00,
2013-02-03 19:18:00,35.6,26.5,29.81,NW,315,3.1,-999.0,69,-99.99,,,1.08,Acu-Link.com,2013-02-04 00:18:00,
2013-02-03 19:33:00,35.8,26.3,29.81,ENE,67,1.6,-999.0,68,-99.99,,,1.08,Acu-Link.com,2013-02-04 00:33:00,
2013-02-03 19:49:00,34.7,26.6,29.82,ESE,112,1.6,-999.0,72,-99.99,,,1.08,Acu-Link.com,2013-02-04 00:49:00,
2013-02-03 20:04:00,35.1,26.6,29.83,South,180,3.8,-999.0,71,-99.99,,,1.08,Acu-Link.com,2013-02-04 01:04:00,
2013-02-03 20:19:00,35.1,26.6,29.83,ENE,67,2.2,-999.0,71,-99.99,,,1.08,Acu-Link.com,2013-02-04 01:19:00,
2013-02-03 20:34:00,34.7,26.3,29.83,NE,45,3.1,-999.0,71,-99.99,,,1.08,Acu-Link.com,2013-02-04 01:34:00,
2013-02-03 20:49:00,33.8,26.4,29.83,SW,225,2.2,-999.0,74,-99.99,,,1.08,Acu-Link.com,2013-02-04 01:49:00,
2013-02-03 21:05:00,33.4,26.1,29.82,SSE,157,2.2,-999.0,74,-99.99,,,1.08,Acu-Link.com,2013-02-04 02:05:00,
2013-02-03 21:20:00,32.9,26.2,29.82,NE,45,2.2,-999.0,76,-99.99,,,1.08,Acu-Link.com,2013-02-04 02:20:00,
2013-02-03 21:35:00,32.4,26.0,29.82,West,270,2.2,-999.0,77,-99.99,,,1.08,Acu-Link.com,2013-02-04 02:35:00,
2013-02-03 21:50:00,32.2,26.1,29.83,NE,45,5.1,-999.0,78,-99.99,,,1.08,Acu-Link.com,2013-02-04 02:50:00,
2013-02-03 22:05:00,31.5,26.0,29.83,West,270,4.3,-999.0,80,-99.99,,,1.08,Acu-Link.com,2013-02-04 03:05:00,
2013-02-03 22:25:00,31.8,26.1,29.82,East,90,2.7,-999.0,79,-99.99,,,1.08,Acu-Link.com,2013-02-04 03:25:00,
2013-02-03 22:42:00,31.8,26.1,29.82,ESE,112,8.3,-999.0,79,-99.99,,,1.08,Acu-Link.com,2013-02-04 03:42:00,
2013-02-03 22:57:00,31.6,25.9,29.82,SSW,202,1.6,-999.0,79,-99.99,,,1.08,Acu-Link.com,2013-02-04 03:57:00,
2013-02-03 23:13:00,31.5,25.7,29.82,East,90,4.7,-999.0,79,-99.99,,,1.08,Acu-Link.com,2013-02-04 04:13:00,
2013-02-03 23:28:00,31.5,26.0,29.82,ENE,67,3.1,-999.0,80,-99.99,,,1.08,Acu-Link.com,2013-02-04 04:28:00,
2013-02-03 23:43:00,31.6,25.3,29.83,ENE,67,3.1,-999.0,77,-99.99,,,1.08,Acu-Link.com,2013-02-04 04:43:00,
2013-02-03 23:58:00,30.9,24.9,29.83,ENE,67,3.1,-999.0,78,-99.99,,,1.08,Acu-Link.com,2013-02-04 04:58:00,